Regional Weather Roundup
Issued by NWS

Home | Current Version | Previous Version | Graphics & Text | Print | Product List | Glossary On
Versions: 1 2 3 4 5 6 7 8 9 10 11 12 13 14 15 16 17 18 19 20 21 22 23 24 25 26 27 28 29 30 31 32 33 34 35 36 37 38 39 40 41 42 43 44 45 46 47 48 49 50
000
ASUS43 KBIS 270002
RWRND

NORTH DAKOTA REGIONAL WEATHER ROUNDUP
NATIONAL WEATHER SERVICE BISMARCK ND
700 PM CDT FRI MAY 26 2017

NOTE: "FAIR" INDICATES FEW OR NO CLOUDS BELOW 12,000 FEET WITH NO
SIGNIFICANT WEATHER AND/OR OBSTRUCTIONS TO VISIBILITY.


NDZ001>003-009>011-017-270100-
NORTHWEST NORTH DAKOTA

CITY           SKY/WX    TMP DP  RH WIND       PRES   REMARKS
WILLISTON      FAIR      69  32  25 W17G25    29.78R
6HR MIN TEMP:  63; 6HR MAX TEMP:  72;

MINOT          FAIR      68  36  30 W17       29.73S
MINOT AFB      MOSUNNY   65  35  32 NW16      29.71S
$$

NDZ018>021-031>035-040>046-270100-
SOUTHWEST NORTH DAKOTA

CITY           SKY/WX    TMP DP  RH WIND       PRES   REMARKS
BISMARCK       PTSUNNY   69  38  32 NW10      29.80S
6HR MIN TEMP:  63; 6HR MAX TEMP:  70;

DICKINSON      FAIR      65  30  27 W16       29.81R
GARRISON         N/A     67  34  29 W22       29.76S
6HR MIN TEMP:  58; 6HR MAX TEMP:  68;

HETTINGER ARPT CLOUDY    65  33  30 NW14      29.86R
$$

NDZ004>008-012>016-024-026-027-054-270100-
NORTHEAST NORTH DAKOTA

CITY           SKY/WX    TMP DP  RH WIND       PRES   REMARKS
GRAND FORKS    MOSUNNY   69  47  45 W14       29.71R
GRND FRKS AFB  PTSUNNY   66  46  47 W10       29.72S
DEVILS LAKE    PTSUNNY   63  42  46 W15       29.75R
$$

NDZ022-023-025-028>030-036>039-047>053-270100-
SOUTHEAST NORTH DAKOTA

CITY           SKY/WX    TMP DP  RH WIND       PRES   REMARKS
FARGO          SUNNY     69  43  38 W15       29.75R
6HR MIN TEMP:  68; 6HR MAX TEMP:  72;

JAMESTOWN      FAIR      64  43  46 W17G23    29.77S
$$





USA.gov is the U.S. government's official web portal to all federal, state and local government web resources and services.